Tracking 20625 objects as of 9-Apr-2020
HD Live streaming from Space Station
objects crossing your sky now

EXPRESS 2

Track EXPRESS 2 now!
EXPRESS 2 is classified as:


NORAD ID: 24435
Int'l Code: 1996-058A
Perigee: 35,744.3 km
Apogee: 35,865.0 km
Inclination: 14.6 °
Period: 1,436.7 minutes
Semi major axis: 42175 km
RCS: 10 m2 (large)
Launch date: September 26, 1996
Source: Commonwealth of Independent States (former USSR) (CIS)
Launch site: TYURATAM MISSILE AND SPACE COMPLEX (TTMTR)
aabbcc
Your satellite tracking list
Your tracking list is empty




NASA's NSSDC Master Catalog

Two Line Element Set (TLE):
1 24435U 96058A   20099.69354674 -.00000299 +00000-0 +00000-0 0  9991
2 24435 014.6467 012.4415 0014308 333.7803 197.0611 01.00232886086142
Source of the keplerian elements: AFSPC